Weather in Chandigarh

India     30°44′37″N   76°48′03″E
temp.,
°C
wind,
m/s
gust,
m/s
humid.,
%
clouds,
%
prec.,
mm/h
press.,
hPa
HPBL,
m
7 march, sun
sun723:30+20ne34170 0.0 101332
02:30+19ese442161 0.0 101150
05:30+18e222832 0.0 101124
08:30+22ese344321 0.1 1013136
11:30+31se672127 0.3 10121407
14:30+30sse562469 0.8 10101338
17:30+28e692584 0.9 1008455
20:30+21ene564585 0.3 101196
8 march, mon
mon823:30+21ene454592 0.4 101277
02:30+19ene4554100 0.3 101168
05:30+18e345797 0.8 101146
08:30+20ese11540 0.0 1014119
11:30+32sse78200 0.1 10142115
14:30+34sse54140 0.0 10114241
17:30+31s231829 0.0 101155
20:30+23ene442516 0.0 101445
9 march, tue
tue923:30+22ene45328 0.0 101556
02:30+19ne223780 0.0 101428
05:30+19ne233441 0.0 101424
08:30+25se22251 0.0 1016123
11:30+32sw21181 0.0 1015720
14:30+35se12120 0.0 10114042
17:30+32ne11173 0.0 101024
20:30+23ne333171 0.4 101325
10 march, wed
wed1023:30+22ene453484 0.8 101460
02:30+20ene674515 0.6 101372
05:30+19ene45487 0.8 101263
08:30+25e343541 0.1 1014106
11:30+32ssw221820 0.1 10131520
14:30+35sw43125 0.0 10104083
17:30+31ssw121816 0.0 100981
20:30+21ene6105069 1.8 1013126
11 march, thu
thu1123:30+20ene554878 2.5 101467
02:30+20ene44400 0.0 101242
05:30+19sse12380 0.0 101228
08:30+25e23270 0.0 1014114
11:30+33s551631 0.0 10131234
14:30+35se461183 0.0 10104358
17:30+32e471487 0.0 1010341
20:30+25e56190 0.0 101274